This is the latest recevied weather packets stored in our database for station/object N2PUI. If no packets are shown the sender has not sent any weather packets the latest 10 day(s).
| Time | Temp. | Humidity | Pressure | Rain* | Wind** | Luminosity | Snow |
|---|---|---|---|---|---|---|---|
| 1778073398 | 11.67° C | 95% | 1007.2 hPa | 4.83 mm | - | 46 W/m² | - |
| 1778073094 | 11.67° C | 95% | 1007.5 hPa | 3.05 mm | - | 46 W/m² | - |
| 1778072791 | 11.11° C | 95% | 1007.6 hPa | 4.83 mm | - | 47 W/m² | - |
| 1778072488 | 10.56° C | 95% | 1007.5 hPa | 6.6 mm | - | 43 W/m² | - |
| 1778072187 | 10° C | 95% | 1007.8 hPa | 4.32 mm | - | 20 W/m² | - |
| 1778071884 | 10° C | 95% | 1008 hPa | 4.32 mm | - | 35 W/m² | - |
| 1778071582 | 10° C | 95% | 1007.5 hPa | 4.83 mm | - | 33 W/m² | - |
| 1778071279 | 10° C | 95% | 1007.3 hPa | 3.05 mm | - | 25 W/m² | - |
| 1778070977 | 10° C | 95% | 1007.4 hPa | 3.05 mm | - | 26 W/m² | - |
| 1778070675 | 10° C | 95% | 1007.3 hPa | 3.05 mm | - | 16 W/m² | - |
| 1778070371 | 10° C | 95% | 1007.4 hPa | 1.27 mm | - | 20 W/m² | - |
| 1778070069 | 10° C | 95% | 1007.1 hPa | 0 mm | - | 23 W/m² | - |
| 1778069767 | 10° C | 95% | 1006.9 hPa | 1.78 mm | - | 24 W/m² | - |
| 1778069463 | 9.44° C | 95% | 1007.2 hPa | 1.78 mm | - | 35 W/m² | - |
| 1778069161 | 9.44° C | 95% | 1007.2 hPa | 0 mm | - | 38 W/m² | - |
| 1778068858 | 9.44° C | 95% | 1007.3 hPa | 0 mm | - | 37 W/m² | - |
| 1778068556 | 9.44° C | 95% | 1007.4 hPa | 1.27 mm | - | 41 W/m² | - |
| 1778068254 | 9.44° C | 95% | 1007.3 hPa | 1.27 mm | - | 39 W/m² | - |
| 1778067951 | 9.44° C | 94% | 1007.7 hPa | 1.78 mm | - | 30 W/m² | - |
| 1778067649 | 9.44° C | 94% | 1007.7 hPa | 3.56 mm | - | 31 W/m² | - |
| 1778067347 | 9.44° C | 94% | 1007.9 hPa | 4.83 mm | - | 19 W/m² | - |
| 1778067044 | 9.44° C | 94% | 1007.7 hPa | 3.05 mm | - | 17 W/m² | - |
| 1778066741 | 9.44° C | 94% | 1007.9 hPa | 3.05 mm | - | 13 W/m² | - |
| 1778066438 | 9.44° C | 94% | 1008.1 hPa | 1.78 mm | - | 12 W/m² | - |
| 1778066136 | 9.44° C | 94% | 1008 hPa | 0 mm | - | 16 W/m² | - |
* Rain latest hour (hover to see other rain measurements)
** Current wind speed in m/s (hover to see current wind gust speed)